Location: Gwatt
(46.7204°N, 7.6223°E)
Time: 21:43:25
(UTC+00:00)

Vanguard 2 Rocket - Pass Details

Date: 29 January 2021
Orbit: 554 x 3326 km, 32.9° (Epoch: 25 February)

Event Time Altitude Azimuth Distance (km) Brightness Sun altitude
Rises 17:20:12 0° 267° (W) 5,983 12.9 -9.1°
Reaches altitude 10° 17:25:34 10° 257° (WSW) 4,452 12.1 -10.0°
Maximum altitude 17:34:00 25° 209° (SSW) 2,544 9.7 -11.4°
Drops below altitude 10° 17:39:39 10° 156° (SSE) 2,866 9.3 -12.3°
Sets 17:42:16 0° 142° (SE) 3,521 9.7 -12.7°
